COMPLETED DISPATCHED CALLS FOR SERVICE

Welcome to the Jacksonville Sheriff’s Office Completed Dispatched Calls for Service webpage. This page displays calls for service made to the Jacksonville Sheriff's Office that have recently been completed. The data on this page is refreshed automatically.

This information is not intended to be used as official crime data. This program does not provide information about all crimes, and excludes specific incidents such as sexual assaults and child abuse.

Disclaimer: The Jacksonville Sheriff's Office makes every effort to produce and publish current and accurate information. No warranties, expressed or implied, are provided for the data herein, its use, or its interpretation. The services provided are for informational purposes only and should not be relied on for any type of legal action.

Last refreshed 3/3 21:49:56

Incident # Dispatched Block Address Signal Call Description  
202100130795 3-3 20:30 5300 WESTCHASE CT 63 DISPUTE
202100131040 3-3 20:30 23RD ST W / PEARL ST N 1050 TRAFFIC STOP
202100131029 3-3 20:20 UNIVERSITY BLVD N / PLAYA WAY 1050 TRAFFIC STOP
202100131019 3-3 20:12 COMMERCE ST / ROGERO RD 1050 TRAFFIC STOP
202100131018 3-3 20:12 LEM TURNER RD / I295 N OFF RAMP 16 ROAD OBSTRUCTION
202100131002 3-3 20:11 300 CARAVAN CIR 64 NOISE COMPLAINT
202100130916 3-3 20:10 14200 BEACH BLVD 63 DISPUTE
202100131017 3-3 20:10 2300 PHILIPS HWY 86 LOST PROPERTY
202100131016 3-3 20:09 SSEXIT BCH RP / BEACH BLVD 1050 TRAFFIC STOP
202100131015 3-3 20:08 3100 ZOO PKWY 1050 TRAFFIC STOP
202100131010 3-3 20:06 14600 DUVAL RD 1050 TRAFFIC STOP
202100130949 3-3 20:04 800 CASSAT AVE 11 ABANDONED VEHICLE
202100130746 3-3 20:02 I295 N OFF RAMP / JTB E ON RAMP 4 AUTO CRASH
202100130988 3-3 20:01 800 BERT RD 33 DISCHARGING OF FIREARM
202100131001 3-3 20:00 ARLINGTON XY SERVICE RD / LARKIN RD 1050 TRAFFIC STOP
202100130995 3-3 19:59 9700 TAPESTRY PARK CIR 33 DISCHARGING OF FIREARM
202100130998 3-3 19:57 PHILIPS/EMERSON 1050 TRAFFIC STOP
202100130997 3-3 19:57 1000 ZOO PKWY 1050 TRAFFIC STOP
202100130971 3-3 19:55 3800 BURNETT PARK RD 63 DISPUTE
202100130992 3-3 19:53 N UNIVEXIT N ARLX RP / ARLINGTON EXPY 1050 TRAFFIC STOP
202100130986 3-3 19:48 800 ZOO PKWY 1050 TRAFFIC STOP
202182004027 3-3 19:48 PLAZA / MAYPORT RD 4 AUTO CRASH
202100130632 3-3 19:47 2700 ALDERSGATE RD 4 AUTO CRASH
202100130975 3-3 19:46 1600 SHIRL LN 13 SUSPICIOUS PERSON
202100130969 3-3 19:46 500 BALMORAL CIR N 13 SUSPICIOUS PERSON
202100130948 3-3 19:46 10600 NORTHWYCK DR 22 DOMESTIC
202100130974 3-3 19:45 11800 BEACH BLVD 60 SUICIDE OR ATTEMPT
202100130982 3-3 19:45 UNIVERSITY BLVD N / WINDERMERE DR 1050 TRAFFIC STOP
202100130977 3-3 19:44 700 ARLINGTON RD N 1050 TRAFFIC STOP
202100130951 3-3 19:42 4500 SUNBEAM RD 63 DISPUTE
202100130973 3-3 19:42 JULIA ST N / FORSYTH ST W 4 AUTO CRASH
202100130966 3-3 19:41 BLANDING BLVD / PALMER AVE 1050 TRAFFIC STOP
202100130857 3-3 19:40 5200 NORMANDY BLVD 63 DISPUTE
202100130903 3-3 19:39 400 STARRATT RD 1066 CANCEL
202100130946 3-3 19:39 1600 MONCRIEF VILLAGE N 1066 CANCEL
202100130919 3-3 19:38 21ST ST W / MONCRIEF RD 63 DISPUTE
202100130959 3-3 19:38 BUFFALO AVE / EVERGREEN AVE 1050 TRAFFIC STOP
202100130952 3-3 19:34 7000 BLK HOGAN RD 1050 TRAFFIC STOP
202100130947 3-3 19:32 BEACH BLVD / ANNISTON RD 1050 TRAFFIC STOP
202100130880 3-3 19:31 1800 HARTRIDGE ST 63 DISPUTE
202100130945 3-3 19:30 10000 ANDERS BLVD 13 SUSPICIOUS PERSON
202100130939 3-3 19:29 1000 WESTBROOK CIR W 73 DRUG INVESTIGATION
202100130922 3-3 19:28 IMESON RD / COMMONWEALTH AVE 4 AUTO CRASH
202100130942 3-3 19:27 ARLINGTON XY SERVICE RD / MILL CREEK RD 1050 TRAFFIC STOP
202100130890 3-3 19:26 6700 KINLOCK DR 63 DISPUTE
202100130941 3-3 19:26 ARLINGTON PL / INDIA AVE 1050 TRAFFIC STOP
202100130934 3-3 19:26 I95 N OFF RAMP / FORSYTH ST W 76 ASSIST OTHER AGENCY
202100130932 3-3 19:25 200 48TH ST E 76 ASSIST OTHER AGENCY
202100130930 3-3 19:22 BEVERLY AVE / ROOSEVELT BLVD 1050 TRAFFIC STOP
202100130926 3-3 19:21 1600 30TH ST W 1066 CANCEL
202100130807 3-3 19:19 100 36TH ST W 27 MENTALLY ILL PERSON
202100130915 3-3 19:17 7500 HOGAN RD 22 DOMESTIC
202100130921 3-3 19:16 EDGEWOOD AVE N / BEAVER ST W 1050 TRAFFIC STOP
202100130918 3-3 19:13 ATLANTIC BLVD / N SSEXIT E ATLANTIC RP 1050 TRAFFIC STOP
202100130908 3-3 19:13 TOWN CENTER PKWY / ST JOHNS BLUFF RD S 1066 CANCEL
202100130912 3-3 19:12 10200 HAVERFORD RD 1066 CANCEL
202100130911 3-3 19:11 ATLANTIC BLVD / ACME ST 1050 TRAFFIC STOP
202100130910 3-3 19:09 GATE PKWY / BAYMEADOWS RD E 1050 TRAFFIC STOP
202100130906 3-3 19:08 500 ACME ST 1050 TRAFFIC STOP
202100130892 3-3 19:07 10200 MIDTOWN PKWY 9J THEFT JUST OCCURRED
202100130782 3-3 19:07 200 PARKWAY BLVD 63 DISPUTE
202100130900 3-3 19:07 10000 BLK SKINNER LAKE DR 68 CON GAME/FLIM FLAM
202100002190 3-3 19:07 100 U N F DR 96 ASSIST MOTORIST
202100130897 3-3 19:06 6800 NORMANDY BLVD 4 AUTO CRASH
202100130899 3-3 19:06 5100 UNIVERSITY BLVD W 1050 TRAFFIC STOP
202100130898 3-3 19:05 I95/BAYMEADOWS 1050 TRAFFIC STOP
202100130893 3-3 19:03 4300 BEVERLY AVE 57 PERSON CALLING FOR HELP
202100130891 3-3 19:01 8500 BAYMEADOWS RD 96 ASSIST MOTORIST
202100130876 3-3 19:01 PALMDALE ST / LAKE PARK DR 16 ROAD OBSTRUCTION
202100130888 3-3 18:59 BEAVER ST W / JEFFERSON ST N 61 FIGHT
202100130889 3-3 18:59 ACME ST / DANDY AVE 1050 TRAFFIC STOP
202100130879 3-3 18:57 10600 ACADEMY PARK DR 63 DISPUTE
202100130886 3-3 18:57 BEACH BLVD / ST JOHNS BLUFF RD S 13 SUSPICIOUS PERSON
202100130885 3-3 18:57 PHILIPS HWY / BAYMEADOWS RD 1050 TRAFFIC STOP
202100130884 3-3 18:56 LYLE RD / DUVAL STATION RD 1050 TRAFFIC STOP
202100130846 3-3 18:54 1000 AIRPORT RD 63 DISPUTE
202100130877 3-3 18:54 7500 SAN JOSE BLVD 4 AUTO CRASH
202100130817 3-3 18:53 I295 S OFF RAMP / ALTA DR 19 ANIMAL INVESTIGATION
202100130871 3-3 18:52 4200 PHILIPS HWY 4 AUTO CRASH
202100130868 3-3 18:51 2900 RAYFORD ST 63 DISPUTE
202100130869 3-3 18:50 9000 NEW KINGS RD 76 ASSIST OTHER AGENCY
202100130867 3-3 18:50 BUNION DR / TAYLOR FIELD RD 13 SUSPICIOUS PERSON
202100130844 3-3 18:49 7700 PARADISE ISLAND BLVD 63 DISPUTE
202100130842 3-3 18:49 13400 RANCH RD 1066 CANCEL
202100130633 3-3 18:48 8400 SOUTHSIDE BLVD 63 DISPUTE
202100130860 3-3 18:47 COLLINS CREEK DR / JOSEPH CREEK DR 13 SUSPICIOUS PERSON
202100130864 3-3 18:47 1600 HENDRICKS AVE 76 ASSIST OTHER AGENCY
202100130819 3-3 18:46 3000 SANDHURST RD E 3 HIT AND RUN CRASH
202100130863 3-3 18:46 I95 S OFF RAMP / 8TH ST W 4 53 TRAFFIC CRASH PERSON INJURED
202100130815 3-3 18:46 5600 JEREMY LN 21C BURGLARY CONVEYANCE
202100130820 3-3 18:45 10900 HARTS RD 63 DISPUTE
202100130847 3-3 18:44 STARRATT RD / DUVAL STATION RD 16 ROAD OBSTRUCTION
202100130812 3-3 18:44 2500 CHESTNUT SPRINGS LN 8T MISSING PERSON (TELESERVE)
202182004026 3-3 18:44 ROYAL PALMS DR / CAVALLA RD 1050 TRAFFIC STOP
202100130856 3-3 18:44 3500 TREMOLINO WAY 33 DISCHARGING OF FIREARM
202100130851 3-3 18:43 5400 LA MOYA AVE 22 DOMESTIC
202100130809 3-3 18:41 5200 NORWOOD AVE 9J THEFT JUST OCCURRED
202100130855 3-3 18:40 INDIA AVE / BOWLAN ST N 1050 TRAFFIC STOP
202100130758 3-3 18:40 7700 EATON AVE 56 JUVENILE COMPLAINT
202100130852 3-3 18:39 TOWN CENTER PKWY / ST JOHNS BLUFF RD S 13 SUSPICIOUS PERSON
202100130850 3-3 18:39 JEFFERSON ST EXIT RIVERSIDE AVE RP / WATER ST 1050 TRAFFIC STOP
202100130816 3-3 18:38 6900 MORSE AVE 2288 DOMESTIC DISPUTE WITH/ASSAULT
202100130763 3-3 18:37 6800 ATLANTIC BLVD 9 THEFT
202100130845 3-3 18:36 4600 TIMUQUANA RD 13 SUSPICIOUS PERSON
202100130743 3-3 18:35 1300 DUVAL LAKE RD S 10 VEHICLE THEFT
202100130808 3-3 18:33 4300 SOUTHSIDE BLVD 79 OBSCENE / THREAT CALL OR LETTER
202100130709 3-3 18:33 9800 HUTCHINSON PARK DR 63 DISPUTE
202100130811 3-3 18:32 7800 POINT MEADOWS DR 6388 DISPUTE WITH ASSAULT
202100130840 3-3 18:32 8200 CASSIE RD 7 DEAD PERSON
202100130727 3-3 18:32 8000 SOUTHSIDE BLVD 22 DOMESTIC
202100130701 3-3 18:30 11900 DIAMOND SPRINGS DR 95ID IDENTITY THEFT
202100130838 3-3 18:30 7500 COVEWOOD DR 88 ASSAULT
202100130804 3-3 18:29 900 UNIVERSITY BLVD N 63 DISPUTE
202100130821 3-3 18:28 7900 MERRILL RD 56 JUVENILE COMPLAINT
202100130739 3-3 18:28 8200 SAILMAKER LN 14RT VANDALISM RESIDENCE TELESERVE
202100130834 3-3 18:27 16000 RESSIE DR W 12 RECKLESS DRIVER
202100130831 3-3 18:26 6400 UNIVER 1050 TRAFFIC STOP
202100130180 3-3 18:26 I295 EXPY N 4 AUTO CRASH
202100129625 3-3 18:26 I295 EXPY N 4 AUTO CRASH
202100129441 3-3 18:26 NEW KINGS RD / I295 S OFF RAMP 4 AUTO CRASH
202100130830 3-3 18:25 I295/OLD/ 96 ASSIST MOTORIST
202100130828 3-3 18:24 26TH ST W / PEARL ST N 1050 TRAFFIC STOP
202100130659 3-3 18:24 SOUTHSIDE BLVD / TOUCHTON RD 68 CON GAME/FLIM FLAM
202100130824 3-3 18:22 I95 N ON RAMP / UNIVERSITY BLVD W 1050 TRAFFIC STOP
202100130740 3-3 18:21 3700 BLANDING BLVD 27 MENTALLY ILL PERSON
202100130789 3-3 18:21 5200 UNIVERSITY BLVD W 13 SUSPICIOUS PERSON
202100130790 3-3 18:20 1300 TYLER ST 63 DISPUTE
202100130756 3-3 18:19 NORMANDY BLVD / BLAIR RD 3 HIT AND RUN CRASH
202100130813 3-3 18:19 BEACH BLVD / SSEXIT BCH RP 4 AUTO CRASH
202100130800 3-3 18:16 1200 11TH ST E 63 DISPUTE
202100130799 3-3 18:13 8000 OLD MIDDLEBURG RD S 21RP BURGLARY RESIDENCE IN PROGRESS
202100130737 3-3 18:11 1800 KINGS RD 63 DISPUTE
202100130797 3-3 18:10 DUNN AVE / NORTH CAMPUS BLVD 1050 TRAFFIC STOP
202100130702 3-3 18:09 POST ST / MURRAY DR 13 SUSPICIOUS PERSON
202100130793 3-3 18:08 13600 HOLLINGS ST 13 SUSPICIOUS PERSON
202100130735 3-3 18:07 7400 103RD ST 38 TRAFFIC ASSIGNMENT
202100130650 3-3 18:05 5900 PAVILION DR 63 DISPUTE
202100130785 3-3 18:05 2000 BLAIR ST 76 ASSIST OTHER AGENCY
202100130516 3-3 18:05 HIGHWAY AVE / EDGEWOOD AVE S 91 TRAFFIC LIGHT/RR CROSSING MALFUNCTION
202100129449 3-3 18:05 MERRILL RD / TOWNSEND BLVD 91 TRAFFIC LIGHT/RR CROSSING MALFUNCTION
202100129447 3-3 18:05 HENDRICKS AVE / SAN JOSE BLVD 91 TRAFFIC LIGHT/RR CROSSING MALFUNCTION
202100129443 3-3 18:05 HENDRICKS AVE / SAN MARCO BLVD 91 TRAFFIC LIGHT/RR CROSSING MALFUNCTION
202100130783 3-3 18:04 8800 BEACH BLVD 5582 HOLDING ONE FOR SHOPLIFTING
202100130576 3-3 18:04 7100 WILSON BLVD 9T THEFT (TELESERVE)
202100130762 3-3 18:04 13200 YELLOW BLUFF RD 4 AUTO CRASH
202100130703 3-3 18:03 I295 EXPY N / ROOSEVELT BLVD EXIT I 295 WB S RP 4 AUTO CRASH
202100130754 3-3 18:03 8000 CAPE FOX DR 33 DISCHARGING OF FIREARM
202100130780 3-3 18:02 I95 S OFF RAMP / GOLFAIR BLVD 1050 TRAFFIC STOP
202100130773 3-3 18:01 1200 5TH ST W 63 DISPUTE
202100130749 3-3 18:00 9800 103RD ST 63 DISPUTE
202100130775 3-3 17:57 I95 N OFF RAMP / PHILIPS HWY 87 DAMAGED PROPERTY
202100130722 3-3 17:57 1200 KINGS RD 22 DOMESTIC
202100130699 3-3 17:57 6700 ST AUGUSTINE RD 63 DISPUTE
202100130731 3-3 17:56 8600 LONE STAR RD 63 DISPUTE
202100130767 3-3 17:56 1500 UNIVERSITY BLVD W 1066 CANCEL
202100130770 3-3 17:55 7100 MERRILL RD 13 SUSPICIOUS PERSON
202100130655 3-3 17:55 2900 PLUM ST 63 DISPUTE
202100130766 3-3 17:53 8600 LONE STAR RD 14 VANDALISM
202100130765 3-3 17:53 HODGES/BE 96 ASSIST MOTORIST
202100130764 3-3 17:53 8400 KONA AVE 1050 TRAFFIC STOP
202100130753 3-3 17:52 HODGES BLVD / BEACH BLVD 63 DISPUTE
202100130736 3-3 17:52 7600 ATLANTIC BLVD 63 DISPUTE
202100130697 3-3 17:51 100 36TH ST W 63 DISPUTE
202100130728 3-3 17:48 OLD MIDDLEBURG RD S / LONGLEAF BRANCH DR 4 AUTO CRASH
202100130467 3-3 17:47 7600 TIMBERWOOD DR 63 DISPUTE
202100130733 3-3 17:47 3600 CAROLINE VALE BLVD 12 RECKLESS DRIVER
202100130752 3-3 17:46 BLANDING BLVD / CEDAR FOREST DR 1050 TRAFFIC STOP
202100130751 3-3 17:45 LONGHORN CIR N / RAMPART RD 4 AUTO CRASH
202100130750 3-3 17:45 BEAVER ST W / JONES RD 1050 TRAFFIC STOP
202100130738 3-3 17:45 5700 ST AUGUSTINE RD 21CT BURGLARY CONVEYANCE TELESERVE
202100130689 3-3 17:42 11100 ARISTIDES WAY 86T LOST PROPERTY (TELESERVE)
202100130694 3-3 17:42 9100 GREENLEAF RD 22 DOMESTIC
202100130624 3-3 17:41 9000 SHINDLER CROSSING DR 95IDT IDENTITY THEFT TELESERVE
202100130714 3-3 17:41 3700 BLANDING BLVD 22 DOMESTIC
202100130681 3-3 17:40 6400 SAN JUAN AVE 63 DISPUTE
202100130744 3-3 17:40 10900 SAN JOSE BLVD 63 DISPUTE
202100130646 3-3 17:40 8700 SOUTHSIDE BLVD 63 DISPUTE
202100130725 3-3 17:40 PHILIPS HWY / EMERSON ST 63 DISPUTE
202100130732 3-3 17:37 1900 HENDRICKS AVE 1066 CANCEL
202100130734 3-3 17:37 9500 SANDLER RD 12 RECKLESS DRIVER
202100130642 3-3 17:36 TOUCHTON RD / SOUTHSIDE BLVD 68 CON GAME/FLIM FLAM
202100130730 3-3 17:35 2100 DUNN AVE 1050 TRAFFIC STOP
202182004024 3-3 17:35 900 PLAZA DR 63 DISPUTE
202100130726 3-3 17:35 ARLINGTON EXPY / N UNIVEXIT N ARLX RP 76 ASSIST OTHER AGENCY
202100130724 3-3 17:33 LANE AVE S / SAN JUAN AVE 1050 TRAFFIC STOP
202100130717 3-3 17:33 3300 LOWELL AVE 76 ASSIST OTHER AGENCY
202100130721 3-3 17:31 7500 OLD MIDDLEBURG RD S 4 AUTO CRASH
202182004023 3-3 17:31 700 BONITA RD 19 ANIMAL INVESTIGATION
202100130712 3-3 17:31 4800 ATLANTIC BLVD 13 SUSPICIOUS PERSON
202100130715 3-3 17:31 8200 ATLANTIC BLVD 63 DISPUTE
202100130667 3-3 17:30 2600 DEBRA DR 10R VEHICLE THEFT RECOVERY
202100130707 3-3 17:29 1700 LOYOLA DR N 19 ANIMAL INVESTIGATION
202100130713 3-3 17:27 3100 BELDEN ST 1050 TRAFFIC STOP
202100130708 3-3 17:25 2500 DUNN AVE 1050 TRAFFIC STOP
202100130706 3-3 17:24 5600 MONCRIEF RD 1050 TRAFFIC STOP
202100130704 3-3 17:23 ATLANTIC BLVD / MILL CREEK RD 19 ANIMAL INVESTIGATION
202100130700 3-3 17:21 I295 EXPY N / ROOSEVELT BLVD EXIT I 295 WB S RP 16 ROAD OBSTRUCTION
202100130695 3-3 17:21 3500 UNIVERSITY BLVD W 2 63 DISPUTE IMPAIRED/INTOXICATED
202100130698 3-3 17:21 3700 TOLEDO RD 1050 TRAFFIC STOP
202100130677 3-3 17:20 OLD ST AUGUSTINE RD / BARTRAM PARK BLVD 3 HIT AND RUN CRASH
202100130693 3-3 17:20 OLD MIDDLEBURG RD N / VINING ST 1050 TRAFFIC STOP
202100130685 3-3 17:19 I95 EXPY S 4 AUTO CRASH
202100130691 3-3 17:19 CENTURY ST / ATLANTIC BLVD 1050 TRAFFIC STOP
202100130690 3-3 17:18 PINE ESTATES RD E / DUNN AVE 1050 TRAFFIC STOP
202100130686 3-3 17:17 KINGS RD / EAVERSON ST 1050 TRAFFIC STOP
202100130684 3-3 17:16 MERRILL RD / FT CAROLINE RD 4 AUTO CRASH
202100130682 3-3 17:14 LONGHORN CIR N / RAMPART RD 4 53 TRAFFIC CRASH PERSON INJURED
202100130662 3-3 17:13 4500 SAN PABLO RD S 4 AUTO CRASH
202100130680 3-3 17:13 8000 SOUTHSIDE BLVD 38 TRAFFIC ASSIGNMENT
202100130671 3-3 17:13 5700 BRANDON LAKE CT 76 ASSIST OTHER AGENCY
202100130678 3-3 17:12 1100 WOODRUFF AVE 16 ROAD OBSTRUCTION
202100130661 3-3 17:11 ATLANTIC BLVD SERVICE RD / KERNAN BLVD S 63 DISPUTE
202100130679 3-3 17:11 LANE AVE S / NORMANDY BLVD 1050 TRAFFIC STOP
202100130657 3-3 17:10 2200 TYLER ST 27 MENTALLY ILL PERSON
202100130673 3-3 17:09 3100 FAIRWOOD LN W 13 SUSPICIOUS PERSON
202100130542 3-3 17:09 GATE PKWY / JTB E OFF RAMP 68 CON GAME/FLIM FLAM
202182004022 3-3 17:09 1300 SEMINOLE RD 50 FOUND/ABANDONED PROPERTY
202100130610 3-3 17:08 5000 SUNDERLAND RD 1066 CANCEL
202100130559 3-3 17:08 500 23RD ST W 95ID IDENTITY THEFT
202100130672 3-3 17:07 1500 HELENA ST 1050 TRAFFIC STOP
202100130668 3-3 17:05 MAIN ST N / BUSCH DR 1050 TRAFFIC STOP
202100130664 3-3 17:04 PHILIPS HWY / RACETRACK RD 4 AUTO CRASH
202100130665 3-3 17:03 2300 MYRTLE AVE N 60 SUICIDE OR ATTEMPT
202100130599 3-3 17:03 900 KING ST 9T THEFT (TELESERVE)
202100130644 3-3 17:03 SUSIE ST / OLD MIDDLEBURG RD N 63 DISPUTE
202100130647 3-3 17:03 EDGEWOOD AVE W / AVENUE B 0 63 ARMED DISPUTE
202100130530 3-3 17:02 8600 LONE STAR RD 63 DISPUTE
202100130635 3-3 17:01 10900 BAYMEADOWS RD 1066 CANCEL
202100130660 3-3 17:00 8700 OLD KINGS RD S 38 TRAFFIC ASSIGNMENT
202100130658 3-3 16:59 10400 AVENUES WALK BLVD 96 ASSIST MOTORIST
202100130653 3-3 16:58 100 ACME ST 0 63 ARMED DISPUTE
202100130628 3-3 16:57 10900 SAN JOSE BLVD 5582 HOLDING ONE FOR SHOPLIFTING
202100130656 3-3 16:57 8800 BEACH BLVD 9J THEFT JUST OCCURRED
202100130651 3-3 16:55 1900 THELMA ST 2 IMPAIRED/INTOXICATED
202100130652 3-3 16:54 2000 3RD ST N 0 ARMED
202100130649 3-3 16:53 7900 NEW KINGS 1050 TRAFFIC STOP
202100130643 3-3 16:52 3500 COLONY COVE TRL W 1066 CANCEL
202100130629 3-3 16:51 5100 COLLINS RD 37 UNVERIFIED 911 CALL
202100130641 3-3 16:51 2100 EMERSON ST 1050 TRAFFIC STOP
202100130636 3-3 16:49 17100 BRANDY BRANCH RD 9J THEFT JUST OCCURRED
202100130634 3-3 16:49 7TH ST E / BRIDIER ST 1050 TRAFFIC STOP
202100130623 3-3 16:48 9900 REGENCY SQUARE BLVD 14B VANDALISM BUSINESS
202100130627 3-3 16:47 100 MATHEWS BRG W 16 ROAD OBSTRUCTION
202100130630 3-3 16:46 MAIN ST N / I295 N OFF RAMP 4 53 TRAFFIC CRASH PERSON INJURED
202100130618 3-3 16:45 500 60TH ST E 19 ANIMAL INVESTIGATION
202100130581 3-3 16:45 103RD ST / OLD MIDDLEBURG RD N 63 DISPUTE
202100130622 3-3 16:44 4700 POST ST 76 ASSIST OTHER AGENCY
202100130603 3-3 16:43 9800 GIBSON AVE 22 DOMESTIC
202100130573 3-3 16:43 10600 BEACH BLVD 9 THEFT
202100130621 3-3 16:42 10900 BEACH BLVD 13 SUSPICIOUS PERSON
202100130613 3-3 16:41 2500 MONCRIEF RD 60 SUICIDE OR ATTEMPT
202100130619 3-3 16:41 100 BUCKMAN BRG S 96 ASSIST MOTORIST
202100130620 3-3 16:40 9800 ATLANTIC BLVD 3 HIT AND RUN CRASH
202182004021 3-3 16:39 ST JOHNS BLUFF RD N / ATLANTIC BLVD 76 ASSIST OTHER AGENCY
202100130568 3-3 16:39 5100 GATE PKWY 63 DISPUTE
202100130617 3-3 16:38 ROOSEVELT BLVD / PARK ST 1050 TRAFFIC STOP
202100130616 3-3 16:38 200 ST JOHNS BLUFF RD N 63 DISPUTE
202100130586 3-3 16:38 7100 OLD KINGS RD S 9 THEFT
202100130615 3-3 16:37 BAYMEADOWS RD / I95 N OFF RAMP 1050 TRAFFIC STOP
202100130614 3-3 16:37 7900 NEWK ING 1050 TRAFFIC STOP
202100130560 3-3 16:37 1000 ARCO DR 63 DISPUTE
202100130465 3-3 16:36 2400 EISNER DR 86T LOST PROPERTY (TELESERVE)
202100130597 3-3 16:35 BEAVER ST W / HURON ST 22 DOMESTIC
202100130608 3-3 16:35 1900 THELMA ST 76 ASSIST OTHER AGENCY
202100130607 3-3 16:34 9500 CROSSHILL BLVD 1066 CANCEL
202100130605 3-3 16:34 JTB/SS 12 RECKLESS DRIVER
202100130602 3-3 16:32 6600 PICKETT DR 4 AUTO CRASH
202100130524 3-3 16:32 5100 GLEN ALAN CT N 64 NOISE COMPLAINT
202100130601 3-3 16:31 I295 N OFF RAMP / MONUMENT RD 4 AUTO CRASH
202100130598 3-3 16:30 SAN JUAN AVE / LANE AVE S 1050 TRAFFIC STOP
202100130590 3-3 16:29 12500 BROOKCHASE LN 64 NOISE COMPLAINT
202100130591 3-3 16:29 7900 MERRILL RD 22 DOMESTIC
202182004020 3-3 16:28 900(400) BLK PARK SIDE DR 38 TRAFFIC ASSIGNMENT
202100130529 3-3 16:28 5100 GATE PKWY 28 DELIVER MESSAGE
202100130595 3-3 16:27 2300 SPRING PARK BLVD 38 TRAFFIC ASSIGNMENT
202100130594 3-3 16:27 VAN BUREN ST / 3RD ST E 1050 TRAFFIC STOP
202100130593 3-3 16:26 PROMINENCE PKWY / FREEDOM CROSSING TRL 1050 TRAFFIC STOP
202100130579 3-3 16:26 3900 TOLEDO RD 63 DISPUTE
202100130566 3-3 16:25 4500 WHEELER AVE 63 DISPUTE
202100130563 3-3 16:25 6800 NORMANDY BLVD 1066 CANCEL
202100130564 3-3 16:24 5300 MONCRIEF RD 1066 CANCEL
202100130569 3-3 16:23 7100 PHILIPS HWY 13 SUSPICIOUS PERSON
202100130521 3-3 16:22 1500 MT HERMAN ST 1066 CANCEL
202100130517 3-3 16:21 11100 BEACH BLVD 63 DISPUTE
202100130587 3-3 16:21 JTB/GATE 12 RECKLESS DRIVER
202100130562 3-3 16:21 1800 SPRINKLE DR 76 ASSIST OTHER AGENCY
202100130498 3-3 16:20 9100 NORMANDY BLVD 19 ANIMAL INVESTIGATION
202100130584 3-3 16:20 8500 PLUMMER RD 4 AUTO CRASH
202100130583 3-3 16:20 SHANNON AVE / OLD KINGS RD 16 ROAD OBSTRUCTION
202100130585 3-3 16:19 NEW KING/I295 1050 TRAFFIC STOP
202100130577 3-3 16:18 7000 103RD ST 3 HIT AND RUN CRASH
202100130552 3-3 16:17 2500 PHILIPS HWY 10 VEHICLE THEFT
202100130561 3-3 16:17 10900 LEM TURNER RD 22 DOMESTIC
202100130580 3-3 16:17 BEAVER ST W / MCDUFF AVE N 4 AUTO CRASH
202100130574 3-3 16:16 LONGLEAF PINE WAY / TIFFANY PINES CIR N 4 AUTO CRASH
202100130575 3-3 16:14 9700 ATLANTIC BLVD 5388 ASSAULT INVOLVING INJURY
202100130453 3-3 16:12 3000 POST ST 63 DISPUTE
202100130309 3-3 16:12 2700 CAVENDER CT 1066 CANCEL
202100130572 3-3 16:11 JTB/295 12 RECKLESS DRIVER
202100130571 3-3 16:11 7200 BENTLEY RD 16 ROAD OBSTRUCTION
202100130570 3-3 16:11 8200 DIX ELLIS TRL 1050 TRAFFIC STOP
202100130544 3-3 16:10 8400 ATLANTIC BLVD 63 DISPUTE
202100130504 3-3 16:07 1400 6TH ST W 2288 DOMESTIC DISPUTE WITH/ASSAULT
202100130414 3-3 16:05 5300 SOUTEL DR 9J THEFT JUST OCCURRED
202100130557 3-3 16:04 300 BUSCH DR 4 AUTO CRASH
202100130554 3-3 16:03 FIRESTONE RD / WHEAT RD 38 TRAFFIC ASSIGNMENT
202100130535 3-3 16:03 COLLINS RD / ROOSEVELT BLVD 4 AUTO CRASH
202100130547 3-3 16:03 600 MARKET ST N 73 DRUG INVESTIGATION
202100130515 3-3 16:03 5900 PAVILION DR 64 NOISE COMPLAINT
202100130540 3-3 16:03 ROOSEVELT BLVD / COLLINS RD 4 AUTO CRASH
202100130436 3-3 16:03 1500 LANE AVE S 9 THEFT
202100130556 3-3 16:03 JTB E OFF RAMP / KERNAN BLVD S 1050 TRAFFIC STOP
202100130553 3-3 16:02 JESSIE ST / HAINES ST 1050 TRAFFIC STOP
202100130549 3-3 16:01 I95 38 TRAFFIC ASSIGNMENT
202100130518 3-3 16:01 2900 BAYSHORE DR E 20 PROWLER
202100130278 3-3 16:00 1700 LOGAN ST 27 MENTALLY ILL PERSON
202100130505 3-3 16:00 7900 JAGUAR DR 1066 CANCEL
202100130538 3-3 15:59 9500 REGENCY SQUARE BLVD 76 ASSIST OTHER AGENCY
202182004019 3-3 15:59 400 ATLANTIC BLVD 13 SUSPICIOUS PERSON
202100130541 3-3 15:59 8000 BAYMEADOWS CIR E 1050 TRAFFIC STOP
202100130537 3-3 15:58 6300 BEACH BLVD 27 MENTALLY ILL PERSON
202100130536 3-3 15:57 8200 GATE PKWY W 3 HIT AND RUN CRASH
202100130325 3-3 15:57 2300 JUSTIN RD E 95 FRAUD/FORGED (CHECK, ID, RX)
202100130464 3-3 15:56 5400 MATANZAS CIR 21R BURGLARY RESIDENCE
202100130532 3-3 15:55 ST AUG/POWERS 1050 TRAFFIC STOP
202100130508 3-3 15:54 1800 CALLAHAN ST 95ID IDENTITY THEFT
202100130527 3-3 15:54 MUSEUM CIR / SAN MARCO BLVD 63 DISPUTE
202182004018 3-3 15:54 900 ATLANTIC BLVD 4 AUTO CRASH
202100130507 3-3 15:52 13500 BEACH BLVD 63 DISPUTE
202100130506 3-3 15:52 4400 TOUCHTON RD E 22 DOMESTIC
202100130525 3-3 15:52 100 LAVILLA CENTER DR 13 SUSPICIOUS PERSON
202100130520 3-3 15:52 103RD ST / FIRESTONE RD 3 HIT AND RUN CRASH
202100130523 3-3 15:52 100 LA VILLA CENTER DR 13 SUSPICIOUS PERSON
202100130522 3-3 15:51 100 LANE AVE N 1050 TRAFFIC STOP
202100130501 3-3 15:48 4900 PEARL ST N 13 SUSPICIOUS PERSON
202100130502 3-3 15:48 11100 ARISTIDES WAY 9T THEFT (TELESERVE)
202100130503 3-3 15:47 9800 ATLANTIC BLVD 4 AUTO CRASH
202100130466 3-3 15:47 3900 SALISBURY RD 63 DISPUTE
202100130511 3-3 15:47 MLKSB/LIBERTY 1050 TRAFFIC STOP
202100130510 3-3 15:46 SAN JOSE BLVD / CROWN POINT RD 4 AUTO CRASH
202100130500 3-3 15:44 2500 SPRING POND LN 27 MENTALLY ILL PERSON
202100130475 3-3 15:41 1300 BROOKWOOD FOREST BLVD 87 DAMAGED PROPERTY
202100130497 3-3 15:40 JTB/HODGES 12 RECKLESS DRIVER
202100130496 3-3 15:40 BLANDING BLVD / I295 N OFF RAMP 16 ROAD OBSTRUCTION
202100130495 3-3 15:40 I95 N OFF RAMP / MAX LEGGETT PKWY 13 SUSPICIOUS PERSON
202100130383 3-3 15:38 7300 NEW KINGS RD 9 THEFT
202100130486 3-3 15:38 7900 JASPER AVE 13 SUSPICIOUS PERSON
202100130487 3-3 15:37 4200 DUNN AVE 27 MENTALLY ILL PERSON
202100130297 3-3 15:36 1800 FOREST HILLS RD 22 DOMESTIC
202192103290 3-3 15:35 4200 DIGNAN ST 63 DISPUTE
202100130417 3-3 15:35 500 BAY ST E 27 MENTALLY ILL PERSON
202100130445 3-3 15:35 3900 OLD SUNBEAM RD 63 DISPUTE
202100130485 3-3 15:33 3700 BRENTWOOD BLVD 1050 TRAFFIC STOP
202100130472 3-3 15:33 700 ASSISI LN 28 DELIVER MESSAGE
202100130483 3-3 15:33 6000 LAKE GRAY BLVD 4 AUTO CRASH
202182004017 3-3 15:32 19TH ST / SEMINOLE RD 38 TRAFFIC ASSIGNMENT
202100130481 3-3 15:32 6300 BEACH BLVD 27 MENTALLY ILL PERSON
202100130452 3-3 15:32 1600 MILL CREEK RD 9T THEFT (TELESERVE)
202192103289 3-3 15:31 2000 3RD ST N 0 ARMED
202100130480 3-3 15:31 7000 103RD ST 4 AUTO CRASH
202100130474 3-3 15:30 9700 TOUCHTON RD 76 ASSIST OTHER AGENCY
202100130478 3-3 15:30 I95/BAY 96 ASSIST MOTORIST
202100130477 3-3 15:29 ROOSEVELT BLVD / ST JOHNS AVE 1050 TRAFFIC STOP
202100130476 3-3 15:29 BRENTWOOD BLVD / WATERBIRD LN 1050 TRAFFIC STOP
202100130471 3-3 15:26 BEACH BLVD / HART EXPY 68 CON GAME/FLIM FLAM
202100130336 3-3 15:25 9500 REGENCY SQUARE BLVD N 14BT VANDALISM BUSINESS TELE-SERVE
202100130450 3-3 15:22 7600 TIMBERWOOD DR 63 DISPUTE
202100130387 3-3 15:22 6100 RAINTREE RD 63 DISPUTE
202100130461 3-3 15:22 700 LIBERTY ST N 73 DRUG INVESTIGATION
202100130460 3-3 15:22 700 LIBERTY ST N 73 DRUG INVESTIGATION
202100130459 3-3 15:22 700 LIBERTY ST N 73 DRUG INVESTIGATION
202100130458 3-3 15:22 700 LIBERTY ST N 73 DRUG INVESTIGATION
202100130457 3-3 15:22 700 LIBERTY ST N 73 DRUG INVESTIGATION
202100130396 3-3 15:22 3500 EMERSON ST 6388 DISPUTE WITH ASSAULT
202100130332 3-3 15:21 100 COURAGEOUS CT N 14CT VANDALISM CONVEYANCE TELESERVE
202100130455 3-3 15:19 BAYMEADOWS RD / WESTERN WAY 4 AUTO CRASH
202100130392 3-3 15:19 100 CHELSEA ST 63 DISPUTE
202100130449 3-3 15:17 4800 TOWN CENTER PKWY 63 DISPUTE
202100130434 3-3 15:14 8100 103RD ST 68 CON GAME/FLIM FLAM
202082020670 3-3 15:14 1100 SANDPIPER LN E 9 THEFT
202100130267 3-3 15:13 6700 103RD ST 63 DISPUTE
202082018439 3-3 15:13 400 BEACH AVE 9 THEFT
202100130443 3-3 15:13 LEM TURNER RD / I95 S OFF RAMP 1050 TRAFFIC STOP
202100130442 3-3 15:12 6000 YOUNGERMAN CIR 13 SUSPICIOUS PERSON
202082016169 3-3 15:12 2400 MAYPORT RD 10 VEHICLE THEFT
202100130351 3-3 15:11 13600 LAS BRISAS WAY 22 DOMESTIC
202082011280 3-3 15:11 600 STOCKS ST 95 FRAUD/FORGED (CHECK, ID, RX)
202100130433 3-3 15:10 12200 BISCAYNE BLVD 4 AUTO CRASH
202100130439 3-3 15:10 800 DUNN AVE 27 MENTALLY ILL PERSON
202100130430 3-3 15:09 9600 SOUTHBROOK DR 37 UNVERIFIED 911 CALL
202100130437 3-3 15:08 2200 KERNAN BLVD S 4 AUTO CRASH
202100130410 3-3 15:07 ATLANTIC BLVD / LIBRARY RD 4 AUTO CRASH
202100130416 3-3 15:07 10300 ATLANTIC BLVD 63 DISPUTE
202100130306 3-3 15:05 10600 OLD ST AUGUSTINE RD 63 DISPUTE
202100130298 3-3 15:04 6800 WILSON BLVD 88 ASSAULT
202100130377 3-3 15:03 10900 BEACH BLVD 95T FRAUD/FORGED (CHECK, ID, RX) (TELESERVE)
202100130420 3-3 15:02 FIRESTONE RD / RAMPART RD 0 13 ARMED SUSPICIOUS PERSON
202100130409 3-3 15:02 WHEAT RD / FIRESTONE RD 11 ABANDONED VEHICLE
202100130412 3-3 15:00 JAMMES RD / 118TH ST 4 53 TRAFFIC CRASH PERSON INJURED
202100130393 3-3 15:00 LIBERTY ST N / BAY ST E 63 DISPUTE
202100130415 3-3 15:00 MLK/MYTRLE 1050 TRAFFIC STOP
202100130413 3-3 14:59 5100 BEACH BLVD 52 ILLEGAL DUMPING
202100130406 3-3 14:56 4300 ROOSEVELT BLVD 1050 TRAFFIC STOP
202100130260 3-3 14:56 2000 JAMMES RD 63 DISPUTE
202100130403 3-3 14:55 9700 SOUTHBROOK DR 63 DISPUTE
202100130400 3-3 14:55 1900 SAN MARCO BLVD 13 SUSPICIOUS PERSON
202100130404 3-3 14:54 3300 EMERSON ST 52 ILLEGAL DUMPING
202100130398 3-3 14:52 1500 27TH ST E 1050 TRAFFIC STOP
202100130397 3-3 14:52 ATLANTIC BLVD / MINDANAO DR 1050 TRAFFIC STOP
202100130389 3-3 14:50 500 BAY ST E 95ID IDENTITY THEFT
202100130352 3-3 14:48 10900 NEW KINGS RD 63 DISPUTE
202100130320 3-3 14:46 3000 CORONET LN 22 DOMESTIC
202100130350 3-3 14:44 600 MARKET ST N 73 DRUG INVESTIGATION
202100130385 3-3 14:44 1900 ATLANTIC BLVD 63 DISPUTE
202100130371 3-3 14:44 8600 HOMEPLACE DR 63 DISPUTE
202192103283 3-3 14:44 JWJ 38 TRAFFIC ASSIGNMENT
202100130375 3-3 14:43 5200 SHAD RD 56 JUVENILE COMPLAINT
202100130384 3-3 14:43 600 SOUTHSIDE CONNECTOR BLVD 38 TRAFFIC ASSIGNMENT
202100130378 3-3 14:43 300 ALDER ST 76 ASSIST OTHER AGENCY
202100130373 3-3 14:41 10400 SAN JOSE BLVD 1066 CANCEL
202100130376 3-3 14:40 NORWOOD AVE / 44TH ST W 1050 TRAFFIC STOP
202100130372 3-3 14:40 UNIVERSITY BLVD W / BARNES RD S 4 AUTO CRASH
202100130316 3-3 14:39 3600 SHREWSBURY DR 21R BURGLARY RESIDENCE
202100130339 3-3 14:39 7100 PHILIPS HWY 13 SUSPICIOUS PERSON
202100130374 3-3 14:39 ATLANTIC BLVD / CARAVAN TRL 1050 TRAFFIC STOP
202100130331 3-3 14:39 ATLANTIC BLVD / HODGES BLVD 63 DISPUTE
202100130354 3-3 14:37 1000 ELLIS RD N 9T THEFT (TELESERVE)
202100130370 3-3 14:37 3800 N UNIVERSITY BLVD 1050 TRAFFIC STOP
202100130329 3-3 14:36 POWERS AVE / ST AUGUSTINE RD 1 IMPAIRED/DRUNK DRIVER
202100130368 3-3 14:36 3800 UNIVERSITY BLVD N 1050 TRAFFIC STOP
202100130367 3-3 14:36 4200 ROOSEVELT BLVD 1050 TRAFFIC STOP
202100130361 3-3 14:34 8600 7TH AVE 63 DISPUTE
202100130303 3-3 14:33 8700 HARE AVE 2288 DOMESTIC DISPUTE WITH/ASSAULT
202100130359 3-3 14:33 1000 HURON ST 7 DEAD PERSON
202100130360 3-3 14:33 8400 CHESWICK OAK AVE 4 AUTO CRASH
202100130362 3-3 14:33 500 ADAMS ST E 34 OFFICER CALLING FOR HELP
202100130288 3-3 14:32 15500 DEWANNA RD 19 ANIMAL INVESTIGATION
202100130168 3-3 14:32 5700 STUART AVE 14 VANDALISM
202100130357 3-3 14:31 2900 COMMONWEALTH AVE 38 TRAFFIC ASSIGNMENT
202100130356 3-3 14:31 13900 ATLANTIC BLVD 63 DISPUTE
202100130277 3-3 14:30 13200 CITY STATION DR 9 THEFT
202100130355 3-3 14:30 18TH ST E / TALLEYRAND AVE 1050 TRAFFIC STOP
202100129563 3-3 14:30 CASSAT AVE / I10 E ON RAMP 4 AUTO CRASH
202100130345 3-3 14:29 ARLINGTON XY SERVICE RD / UNDERHILL DR 1066 CANCEL
202100130334 3-3 14:27 6800 WILSON BLVD 5582 HOLDING ONE FOR SHOPLIFTING
202100130347 3-3 14:26 BOWDEN/PHIL 96 ASSIST MOTORIST
202100130313 3-3 14:24 14000 INTEGRA DR 95IDT IDENTITY THEFT TELESERVE
202100130275 3-3 14:22 4300 CONFEDERATE POINT RD 63 DISPUTE
202100129977 3-3 14:22 6600 SOUTHPOINT PKWY 2 63 DISPUTE IMPAIRED/INTOXICATED
202100130335 3-3 14:22 100 MATHEWS BRG E 16 ROAD OBSTRUCTION
202100130286 3-3 14:21 7500 ARLINGTON EXPY 86 LOST PROPERTY
202100130310 3-3 14:19 CEDAR POINT RD / BONEY RD 16 ROAD OBSTRUCTION
202100130330 3-3 14:19 2600 UNIVERSITY BLVD N 62 PERSON CUT
202100130326 3-3 14:18 5200 SAWMILL POINT WAY 21R BURGLARY RESIDENCE
202182004015 3-3 14:17 300 SHERRY DR 38 TRAFFIC ASSIGNMENT
202100130319 3-3 14:12 4060(4000) BLK HECKSCHER DR 12 RECKLESS DRIVER
202100130287 3-3 14:08 4500 JAMMES RD 0 63 ARMED DISPUTE
202100130308 3-3 14:08 500 BAY ST E 60 SUICIDE OR ATTEMPT
202100130311 3-3 14:07 I295/103RD 1050 TRAFFIC STOP
202100130307 3-3 14:06 14300 VAN ZILE AVE 3 HIT AND RUN CRASH
202100130301 3-3 14:06 100 ARLINGTON RD S 4 AUTO CRASH
202100129979 3-3 14:04 1400 7TH ST W 63 DISPUTE
202100129365 3-3 14:03 COMMONWEALTH AVE / PICKETTVILLE RD 91 TRAFFIC LIGHT/RR CROSSING MALFUNCTION
202100130300 3-3 14:02 6300 PHILIPS HWY 38 TRAFFIC ASSIGNMENT
202100130299 3-3 14:02 103RD ST / I295 N OFF RAMP 4 AUTO CRASH
202100130295 3-3 14:01 1400 MORGANA RD 19 ANIMAL INVESTIGATION
202100130291 3-3 14:01 SOUTHSIDE BLVD / ATLANTIC BLVD 4 AUTO CRASH
202100130293 3-3 13:59 2900 COMMONWEALTH AVE 38 TRAFFIC ASSIGNMENT
202100130218 3-3 13:58 10600 LEM TURNER RD 4 AUTO CRASH
202100129990 3-3 13:58 1900 24TH ST W 63 DISPUTE
202100130209 3-3 13:57 3700 TORRES CT 63 DISPUTE
202100130154 3-3 13:56 13000 MAIN ST N 4 AUTO CRASH
202100130281 3-3 13:54 1100 FORSYTH ST W 60 SUICIDE OR ATTEMPT
202100130282 3-3 13:54 14000 BEACH BLVD 38 TRAFFIC ASSIGNMENT
202100130189 3-3 13:53 7200 NORMANDY BLVD 63 DISPUTE
202100130273 3-3 13:50 3700 HUGUENOT LANDING WAY 13 SUSPICIOUS PERSON
202100130251 3-3 13:50 3700 UNIVERSITY CLUB BLVD 76 ASSIST OTHER AGENCY
202100130274 3-3 13:49 FT CAROLINE/ST JOHNS BLUFF 1050 TRAFFIC STOP
202100130271 3-3 13:48 4700 BLANDING BLVD 1050 TRAFFIC STOP
202100130270 3-3 13:47 PHILIPS HWY / JTB 1050 TRAFFIC STOP
202100130268 3-3 13:46 DUNN AVE / MONACO DR 1050 TRAFFIC STOP
202100130263 3-3 13:45 5400 101ST ST 9 THEFT
202100130237 3-3 13:44 ST JOHNS BLUFF RD S / I295 N OFF RAMP 13 SUSPICIOUS PERSON
202100130262 3-3 13:43 12000 LAKE FERN DR 21RP BURGLARY RESIDENCE IN PROGRESS
202100130261 3-3 13:42 7500 MELVIN RD 12 RECKLESS DRIVER
202100130258 3-3 13:41 6000 ARGYLE FOREST BLVD 3 53 HIT AND RUN CRASH W/FIRE
202100130259 3-3 13:41 EDGEWOOD AVE W / LEM TURNER RD 4 53 TRAFFIC CRASH PERSON INJURED
202192103274 3-3 13:40 7000 MELVIN RD 76 ASSIST OTHER AGENCY
202100130230 3-3 13:40 9200 SALTWATER WAY 13 SUSPICIOUS PERSON
202100130254 3-3 13:40 13300 BEACH BLVD 4 AUTO CRASH
202100130255 3-3 13:39 3800 ANVERS BLVD 12 RECKLESS DRIVER
202100130201 3-3 13:38 7100 PHILIPS HWY 63 DISPUTE
202100130250 3-3 13:37 SOUTHSIDE BLVD / TOUCHTON RD 68 CON GAME/FLIM FLAM
202100130244 3-3 13:37 100 COURAGEOUS CT N 14CT VANDALISM CONVEYANCE TELESERVE
202100130239 3-3 13:37 11100 SAN JOSE BLVD 9 THEFT
202100130193 3-3 13:36 6600 BENNETT CREEK DR 95ID IDENTITY THEFT
202100130247 3-3 13:36 EGEW/OLD KIINGS 1050 TRAFFIC STOP
202100130235 3-3 13:35 1200 DENA ST 95IDT IDENTITY THEFT TELESERVE
202100130143 3-3 13:35 1800 TOMLINSON LN 95ID IDENTITY THEFT
202100130108 3-3 13:35 6300 SOUTEL DR 9 THEFT
202100130202 3-3 13:35 800 DUNN AVE 2 63 DISPUTE IMPAIRED/INTOXICATED
202100130242 3-3 13:35 COMMONWEALTH AVE / SUEMAC RD 4 AUTO CRASH
202100130246 3-3 13:34 4400 FIRESTONE RD 12 RECKLESS DRIVER
202100130241 3-3 13:34 8600 LONE STAR RD 13 SUSPICIOUS PERSON
202100130164 3-3 13:34 1100 CALIENTE DR 27 MENTALLY ILL PERSON
202100130245 3-3 13:34 9400 BAYMEADOWS RD 1050 TRAFFIC STOP
202100130234 3-3 13:31 27TH ST W / MONCRIEF RD 4 AUTO CRASH
202100130232 3-3 13:30 4200 SOUTHSIDE BLVD 4 AUTO CRASH
202100130231 3-3 13:30 1000 HENDRICKS AVE 52 ILLEGAL DUMPING
202100130228 3-3 13:29 2100 13TH ST W 18 PERSON SHOT
202100130226 3-3 13:28 4000 HARTS EXPY 12 RECKLESS DRIVER
202100130224 3-3 13:28 APPROX LOC: 3867 ANVERS BLVD 12 RECKLESS DRIVER
202100130222 3-3 13:27 HOGAN RD / FOSTER DR 16 ROAD OBSTRUCTION
202100130217 3-3 13:26 13500 BEACH BLVD 63 DISPUTE
202100130221 3-3 13:26 PEARL ST N / 48TH ST W 4 AUTO CRASH
202100130214 3-3 13:24 11900 DIAMOND SPRINGS DR 95IDT IDENTITY THEFT TELESERVE
202100130216 3-3 13:23 14200 HOLLINGS ST 1050 TRAFFIC STOP
202100130215 3-3 13:23 900 DUSKIN DR 38 TRAFFIC ASSIGNMENT
202100130213 3-3 13:22 3800 ORIELY DR W 12 RECKLESS DRIVER
202100130147 3-3 13:22 3500 LAURA ST N 63 DISPUTE
202100129944 3-3 13:21 5700 LENOX AVE 86T LOST PROPERTY (TELESERVE)
202100130187 3-3 13:20 11000 BEACH BLVD 63 DISPUTE
202100130183 3-3 13:20 2000 ART MUSEUM DR 80 PROSTITUTION (ONLY)
202100130188 3-3 13:20 7900 MERRILL RD 13 SUSPICIOUS PERSON
202100130210 3-3 13:20 MCDUFF AVE N / BROADWAY AVE 3 HIT AND RUN CRASH
202100130123 3-3 13:19 8000 103RD ST 2288 DOMESTIC DISPUTE WITH/ASSAULT
202100130130 3-3 13:19 8600 BAYMEADOWS RD 63 DISPUTE
202100130167 3-3 13:16 100 COURAGEOUS CT N 14CT VANDALISM CONVEYANCE TELESERVE
202100130206 3-3 13:16 APPROX LOC: 3839 ANVERS BLVD 12 RECKLESS DRIVER
202100130204 3-3 13:15 3600 HODGES BLVD 38 TRAFFIC ASSIGNMENT
202100130200 3-3 13:14 100 OCEANWAY AVE 76 ASSIST OTHER AGENCY
202100130194 3-3 13:13 4000 HART EXPY 12 RECKLESS DRIVER
202100130190 3-3 13:13 1300 DUNN AVE 60 SUICIDE OR ATTEMPT
202100130192 3-3 13:12 I295 S OFF RAMP / 103RD ST 96 ASSIST MOTORIST
202100130191 3-3 13:12 3100 ST JOHNS BLUFF RD S 73 DRUG INVESTIGATION
202100130110 3-3 13:11 4900 SUNBEAM RD 73 DRUG INVESTIGATION
202100130185 3-3 13:09 MC DUFF/BEAVER 1050 TRAFFIC STOP
202100130184 3-3 13:09 7200 ARLINGTON EXPY 1050 TRAFFIC STOP
202100130078 3-3 13:09 8000 PARRAMORE RD 21C BURGLARY CONVEYANCE
202100130169 3-3 13:08 12100 DEEDER LN 76 ASSIST OTHER AGENCY
202100130165 3-3 13:07 4200 PHILIPS HWY 3 HIT AND RUN CRASH
202100130166 3-3 13:07 2000 CHELWOOD CT 22 DOMESTIC
202100130176 3-3 13:07 I295 EXPY N / ROOSEVELT BLVD EXIT I 295 WB S RP 16 ROAD OBSTRUCTION
202100130178 3-3 13:07 3500 BLANDING BLVD 54 ILLEGALLY PARKED CAR
202100130177 3-3 13:07 1400(1042) BLK DENNIS ST 52 ILLEGAL DUMPING
202100130127 3-3 13:07 JAMMES RD / 103RD ST 2288 DOMESTIC DISPUTE WITH/ASSAULT
202100130172 3-3 13:06 SUMMER BREEZE DR / DUVAL STATION RD 1050 TRAFFIC STOP
202100130170 3-3 13:05 1800 PAYNE AVE 10R VEHICLE THEFT RECOVERY
202100130133 3-3 13:05 4200 PHILIPS HWY 63 DISPUTE
202100130134 3-3 13:05 7200 POWERS AVE 63 DISPUTE
202100130160 3-3 13:04 6700 103RD ST 1066 CANCEL
202100130162 3-3 13:04 9600 CAMPUS AVE 13 SUSPICIOUS PERSON
202100130161 3-3 13:03 9900 ATLANTIC BLVD 4 AUTO CRASH
202100130159 3-3 13:02 9800 HUTCHINSON PARK DR 3 HIT AND RUN CRASH
202100130156 3-3 13:02 9300 103RD ST 22 DOMESTIC
202100130157 3-3 13:00 13000 INTER AI 1050 TRAFFIC STOP
202100130004 3-3 13:00 1200 DENA ST 28 DELIVER MESSAGE
202100130155 3-3 13:00 APPROX LOC: 1957 OLD MIDDLEBURG RD N 12 RECKLESS DRIVER
202100130153 3-3 12:59 BOWDEN RD / RICHARD ST 4 AUTO CRASH
202100130152 3-3 12:59 CARAVAN TRL / ATLANTIC BLVD 1050 TRAFFIC STOP
202100130151 3-3 12:58 8000 ARLINGTON EXPRESSWAY 38 TRAFFIC ASSIGNMENT
202100130149 3-3 12:58 1500 19TH ST W 87 DAMAGED PROPERTY
202192103267 3-3 12:58 100 OCEANWAY AVE 36 MEET AN OFFICER
202100130148 3-3 12:56 WONDERWOOD BRG 1050 TRAFFIC STOP
202100130082 3-3 12:55 400 MONUMENT RD 63 DISPUTE
202192103266 3-3 12:55 7000 POWERS AVE 73 DRUG INVESTIGATION
202100130126 3-3 12:55 500 25TH ST W 63 DISPUTE
202100130144 3-3 12:55 1700 LEON RD 63 DISPUTE
202100130145 3-3 12:55 LEM TURNER RD / CLYDE DR 1050 TRAFFIC STOP
202100130122 3-3 12:54 7700 RAMPART RD 10R VEHICLE THEFT RECOVERY
202100130142 3-3 12:54 PHILLIPS PARKWAY DR E / BUSINESS PARK BLVD 4 AUTO CRASH
202100130138 3-3 12:53 500 28TH ST W 21CP BURGLARY CONVEYANCE IN PROGRESS
202100130139 3-3 12:52 UNIVERSITY BLVD N / LOS SANTOS WAY 91 TRAFFIC LIGHT/RR CROSSING MALFUNCTION
202100130137 3-3 12:51 1200 BROAD ST N 60 SUICIDE OR ATTEMPT
202100130129 3-3 12:51 900 ARLINGTON RD N 63 DISPUTE
202100130038 3-3 12:51 300 ELM ST 63 DISPUTE
202100130135 3-3 12:50 1600 MILL CREEK RD 9T THEFT (TELESERVE)
202100130136 3-3 12:50 500 44TH ST W 52 ILLEGAL DUMPING
202100130132 3-3 12:49 2100 DAVIS RD 63 DISPUTE
202100130119 3-3 12:49 10200 NEW KINGS RD 6388 DISPUTE WITH ASSAULT
202100129982 3-3 12:48 7600 GINDER CT 1066 CANCEL
202100130128 3-3 12:48 MAIN ST N / I295 N OFF RAMP 1050 TRAFFIC STOP
202100130125 3-3 12:47 SUNBEAM RD / SAN JOSE BLVD 4 AUTO CRASH
202100130101 3-3 12:43 7100 EAGLES PERCH DR 13 SUSPICIOUS PERSON
202100130121 3-3 12:43 PRUDENTIAL DR / MAIN ST S 1050 TRAFFIC STOP
202100129984 3-3 12:40 7400 WHITE ALDER DR 22 DOMESTIC
202100130114 3-3 12:39 MLK/8TH 1050 TRAFFIC STOP
202100130089 3-3 12:39 2200 MCDOWELL ST 4 AUTO CRASH
202100130111 3-3 12:38 8600 LEM TURNE 1050 TRAFFIC STOP
202100130102 3-3 12:38 11300 BEACH BLVD 63 DISPUTE
202100130106 3-3 12:37 9000 SOUTHSIDE BLVD 4 AUTO CRASH
202100130103 3-3 12:36 I295 EXPY N / DAMES POINT BRG N 1050 TRAFFIC STOP
202100130085 3-3 12:36 2800 SEARCHWOOD DR 63 DISPUTE
202100129992 3-3 12:35 3600 RING LN 22 DOMESTIC
202100130095 3-3 12:33 3500 SMITHFIELD ST 63 DISPUTE
202100130100 3-3 12:33 MCDUFF AVE N / BROADWAY AVE 1050 TRAFFIC STOP
202100129966 3-3 12:33 1200 LABELLE ST 22 DOMESTIC
202100130093 3-3 12:32 100 BUCKMAN BRG S 96 ASSIST MOTORIST
202100130097 3-3 12:32 SAN JUAN AVE / LANE AVE S 96 ASSIST MOTORIST
202100130057 3-3 12:32 2500 BEAVER ST W 9J THEFT JUST OCCURRED
202100130094 3-3 12:31 BAYMEADOWS RD / I95 N OFF RAMP 68 CON GAME/FLIM FLAM
202100130043 3-3 12:31 9800 WAGNER RD 19 ANIMAL INVESTIGATION
202192103263 3-3 12:30 2100 45TH ST W 88 ASSAULT
202100130079 3-3 12:29 400 MONUMENT RD 3 HIT AND RUN CRASH
202100130076 3-3 12:29 13700 BEACH BLVD 63 DISPUTE
202100130044 3-3 12:28 7500 COVEWOOD DR 63 DISPUTE
202100129953 3-3 12:27 2600 FRESNO DR 95IDT IDENTITY THEFT TELESERVE
202100130053 3-3 12:27 SOUTHSIDE BLVD / TOUCHTON RD 68 CON GAME/FLIM FLAM
202100130084 3-3 12:26 NEW KING/MAR 1050 TRAFFIC STOP
202100130049 3-3 12:26 9900 BAYMEADOWS RD 73 DRUG INVESTIGATION
202100130083 3-3 12:26 1400 SEABREEZE AVE 76 ASSIST OTHER AGENCY
202100130081 3-3 12:25 GALVESTON AVE / MILL CREEK RD 1050 TRAFFIC STOP
202100130080 3-3 12:25 1750(1700) BLK OLD GIRVIN RD 52 ILLEGAL DUMPING
202100129856 3-3 12:24 1300 LABELLE ST 21C BURGLARY CONVEYANCE
202100130068 3-3 12:20 BEAVER ST W / CONE ST 1050 TRAFFIC STOP
202100130037 3-3 12:19 10900 BEACH BLVD 21R BURGLARY RESIDENCE
202100130065 3-3 12:19 7800 SOUTHSIDE BLVD 38 TRAFFIC ASSIGNMENT
202100129806 3-3 12:19 10000 BELLE RIVE BLVD 95T FRAUD/FORGED (CHECK, ID, RX) (TELESERVE)
202100130060 3-3 12:18 1000 UNIVERSITY BLVD N 0 63 ARMED DISPUTE
202100130062 3-3 12:18 12400 PRESIDENTS CT 1066 CANCEL
202100130058 3-3 12:18 1000 GOLFAIR BLVD 60 SUICIDE OR ATTEMPT
202100130061 3-3 12:17 US90 1050 TRAFFIC STOP
202100130045 3-3 12:16 2000 HAMILTON ST 4 AUTO CRASH
202100130054 3-3 12:15 4300 PABLO OAKS CT 77 WELL BEING CHECK
202100130052 3-3 12:15 8600 FREE AVE 13 SUSPICIOUS PERSON
202100129999 3-3 12:15 5900 FLICKER AVE 64 NOISE COMPLAINT
202100130050 3-3 12:14 3300 WILKSHIRE LN 95ID IDENTITY THEFT
202100130048 3-3 12:11 LEM TURNER RD / CLYDE DR 1050 TRAFFIC STOP
202100129823 3-3 12:10 5900 JULIE AVE 63 DISPUTE
202100130042 3-3 12:08 700 SEAGATE AVE 73 DRUG INVESTIGATION
202100129925 3-3 12:08 103RD ST / BLANDING BLVD 63 DISPUTE
202100130040 3-3 12:07 BEAV/KON 1050 TRAFFIC STOP
202192103259 3-3 12:06 700 SEAGATE AVE 73 DRUG INVESTIGATION
202100002178 3-3 12:05 100 U N F DR 50 FOUND/ABANDONED PROPERTY
202100130025 3-3 12:04 6100 MAIN ST N 63 DISPUTE
202100130035 3-3 12:04 JTB W OFF RAMP / HODGES BLVD 12 RECKLESS DRIVER
202100130012 3-3 12:03 5800 ARLINGTON RD 54 ILLEGALLY PARKED CAR
202100130034 3-3 12:03 STOCKTON ST / EDISON AVE 1050 TRAFFIC STOP
202100130021 3-3 12:03 3000 MERLIN DR N 13 SUSPICIOUS PERSON
202100130031 3-3 12:03 10400 MONACO DR 76 ASSIST OTHER AGENCY
202100130030 3-3 12:02 RAMPART RD / PARK CITY DR 1050 TRAFFIC STOP
202100129842 3-3 12:01 5300 SPRINGFIELD BLVD 9 THEFT
202100130020 3-3 12:00 3200 CARIBBEAN DR 4 AUTO CRASH
202100130016 3-3 11:57 STOCKTON ST / BEAVER ST W 1050 TRAFFIC STOP
202100129714 3-3 11:57 6000 BLANDING BLVD 9 THEFT
202100130010 3-3 11:55 9900 BAYMEADOWS RD 63 DISPUTE
202100130013 3-3 11:55 5800 NORWOOD AVE 1050 TRAFFIC STOP
202100130008 3-3 11:54 800 HAINES ST 0 ARMED
202100130006 3-3 11:54 500 ADAMS ST W 9 THEFT
202100130005 3-3 11:54 9B AND PHILIPS HWY 38 TRAFFIC ASSIGNMENT
202100130002 3-3 11:52 3100 ST JOHNS BLUFF S 73 DRUG INVESTIGATION
202100130001 3-3 11:52 BROAD ST N / DUVAL ST W 4 AUTO CRASH
202100130000 3-3 11:52 4700 NORWOOD AVE 38 TRAFFIC ASSIGNMENT
202100129994 3-3 11:48 6300 COLLINS RD 2288 DOMESTIC DISPUTE WITH/ASSAULT
202100129986 3-3 11:48 2300 PHILIPS HWY 63 DISPUTE
202100129993 3-3 11:47 100 HART BRG N 38 TRAFFIC ASSIGNMENT
202100129988 3-3 11:47 1100 AIRPORT RD 63 DISPUTE
202100129991 3-3 11:46 LEM TURNER RD / DUNN AVE 1050 TRAFFIC STOP
202100129987 3-3 11:46 6400 SHORTLEAF PL 8 MISSING PERSON
202100129789 3-3 11:45 500 23RD ST W 95ID IDENTITY THEFT
202100129968 3-3 11:44 NEW KINGS RD / TROUT RIVER BLVD 63 DISPUTE
202100129962 3-3 11:42 1900 KINGS RD 9J THEFT JUST OCCURRED
202192103255 3-3 11:42 500 DUVAL STATION RD 36 MEET AN OFFICER
202100129975 3-3 11:41 4100 HECKSCHER DR 76 ASSIST OTHER AGENCY
202100129978 3-3 11:40 3700 TURTON AVE 52 ILLEGAL DUMPING
202100129948 3-3 11:40 6700 LAKE MIST LN 95ID IDENTITY THEFT
202100129976 3-3 11:40 BEAV/COMB 1050 TRAFFIC STOP
202100129973 3-3 11:40 1400 RIVERPLACE BLVD 63 DISPUTE
202100129969 3-3 11:39 2800 HERSCHEL ST 16 ROAD OBSTRUCTION
202100129970 3-3 11:39 3400 PHILIPS HWY 4 AUTO CRASH
202100129782 3-3 11:39 900 LANE AVE S 63 DISPUTE
202100129972 3-3 11:39 44TH/NORWOOD 1050 TRAFFIC STOP
202100129908 3-3 11:36 1400 FRANKLIN ST 76 ASSIST OTHER AGENCY
202100129941 3-3 11:36 2200 CORTEZ RD 63 DISPUTE
202100129831 3-3 11:36 7100 SMYRNA ST 88 ASSAULT
202100129961 3-3 11:36 100 DAMES POINT BRG N 16 ROAD OBSTRUCTION
202100129937 3-3 11:35 UNIVERSITY BLVD S / RIVER HILLS DR 4 AUTO CRASH
202100129957 3-3 11:33 NORMANDY BLVD / HAMMOND BLVD 4 AUTO CRASH
202100129950 3-3 11:31 12000 NORMANDY BLVD 12 RECKLESS DRIVER
202100129949 3-3 11:28 CENTERHILL/ROCKWOOD DR. 1050 TRAFFIC STOP
202100129947 3-3 11:28 I95 S AT I 295 WBWY S NORTHEND 1050 TRAFFIC STOP
202100129946 3-3 11:27 EDGEWOOD/5TH ST 1050 TRAFFIC STOP
202100129942 3-3 11:25 100 TROUT RIVER DR 50 FOUND/ABANDONED PROPERTY
202100129876 3-3 11:23 1700 MAIN ST N 63 DISPUTE
202100129939 3-3 11:23 BEAVER ST W / STOCKTON ST 1050 TRAFFIC STOP
202100129785 3-3 11:22 1400 24TH ST W 63 DISPUTE
202100129841 3-3 11:21 500 ADAMS ST W 22 DOMESTIC
202100129935 3-3 11:21 2900 12TH ST W 19 ANIMAL INVESTIGATION
202100129911 3-3 11:20 10900 BEACH BLVD 63 DISPUTE
202100129931 3-3 11:19 200 NEWNAN ST N 60 SUICIDE OR ATTEMPT
202100129932 3-3 11:19 ATLANTIC BLVD / SOUTHSIDE BLVD 1050 TRAFFIC STOP
202100129928 3-3 11:18 PARK ST / KING ST 13 SUSPICIOUS PERSON
202100129927 3-3 11:17 NEW BERLIN RD / FAYE RD 91 TRAFFIC LIGHT/RR CROSSING MALFUNCTION
202100129926 3-3 11:17 6500 ARLINGTON EXPRESSWAY SERVICE RD 11 ABANDONED VEHICLE
202100129853 3-3 11:17 6200 TERRY RD 9 THEFT
202100129916 3-3 11:16 13000 GRAN BAY PKWY 3 HIT AND RUN CRASH
202100129922 3-3 11:16 US 90/301 1050 TRAFFIC STOP
202100129918 3-3 11:16 I95 S OFF RAMP / UNIVERSITY BLVD W 1050 TRAFFIC STOP
202100129913 3-3 11:15 8300 NORMANDY BLVD 27 MENTALLY ILL PERSON
202100129873 3-3 11:15 4700 EDISON AVE 63 DISPUTE
202192103253 3-3 11:15 10900 PINE ESTATES RD E 36 MEET AN OFFICER
202100129912 3-3 11:14 9B AND E TOWN 38 TRAFFIC ASSIGNMENT
202100129909 3-3 11:14 2800 SYDNEY STREET 11 ABANDONED VEHICLE
202100129898 3-3 11:14 6800 NORMANDY BLVD 12 RECKLESS DRIVER
202100129786 3-3 11:12 11700 CENTRAL PKWY 9 THEFT
202100129728 3-3 11:11 1500 ALFORD PL 14B VANDALISM BUSINESS
202100129906 3-3 11:11 BEAVER/EDGEWOOD 1050 TRAFFIC STOP
202100129811 3-3 11:11 13600 WOODLAND DR 22 DOMESTIC
202100129905 3-3 11:10 JEFFERSON ST N / UNION ST W 27 MENTALLY ILL PERSON
202100129904 3-3 11:10 SOUTHSIDE BLVD / BAYMEADOWS RD 4 AUTO CRASH
202100129887 3-3 11:10 8600 7TH AVE 63 DISPUTE
202100129903 3-3 11:09 1900 W BEAVER 1050 TRAFFIC STOP
202100129902 3-3 11:09 4000 BLANDING BLVD 4 53 TRAFFIC CRASH PERSON INJURED
202100129895 3-3 11:08 7800 ATLANTIC BLVD 4 AUTO CRASH
202100129899 3-3 11:08 BLANDING BLVD / HYDE PARK RD 4 AUTO CRASH
202100129900 3-3 11:07 I295 N ON RAMP / 103RD ST 4 53 TRAFFIC CRASH PERSON INJURED
202100129897 3-3 11:05 7400 NEW KINGS RD 52 ILLEGAL DUMPING
202100129896 3-3 11:05 12000 NORMANDY BLVD 1050 TRAFFIC STOP
202100129891 3-3 11:04 BRANDEMERE RD N / ROGERO RD 16 ROAD OBSTRUCTION
202100129893 3-3 11:04 10900 BEACH BLVD 4 AUTO CRASH
202100129888 3-3 11:03 13100(11000) BLK INTERNATIONAL AIRPORT BLVD 1050 TRAFFIC STOP
202100129840 3-3 11:02 2300 HILLY RD 49 REPORT TO HOSPITAL
202100129737 3-3 11:01 1200 MACARTHUR ST 22 DOMESTIC
202100129767 3-3 11:01 8200 DIX ELLIS TRL 79 OBSCENE / THREAT CALL OR LETTER
202100129872 3-3 11:01 LAURA ST N / MONROE ST W 0 13 ARMED SUSPICIOUS PERSON
202182004011 3-3 11:01 100 BEGONIA ST 19 ANIMAL INVESTIGATION
202100129883 3-3 11:01 1800 LANE AVE S 9J THEFT JUST OCCURRED
202100129649 3-3 11:01 I95 S OFF RAMP / BAYMEADOWS RD 16 ROAD OBSTRUCTION
202100129571 3-3 11:01 I95 S OFF RAMP / UNIVERSITY BLVD W 4 AUTO CRASH
202100129881 3-3 11:00 CASSAT AVE / WATERSIDE DR 3 HIT AND RUN CRASH
202100129884 3-3 11:00 PRIT/I295 1050 TRAFFIC STOP
202100129879 3-3 10:59 1600 ATLANTIC BLVD 4 AUTO CRASH
202100129880 3-3 10:59 600 SOUTHSIDE CONNECTOR 38 TRAFFIC ASSIGNMENT
202100129875 3-3 10:58 8000 HERLONG RD 63 DISPUTE
202100129870 3-3 10:57 13500 CITICARDS WAY 1066 CANCEL
202100129874 3-3 10:57 300 W BEAVER ST 1050 TRAFFIC STOP
202100129850 3-3 10:57 11100 CREEKVIEW DR 63 DISPUTE
202100129835 3-3 10:56 2300 HILLY RD 1066 CANCEL
202100129844 3-3 10:56 8100 ATLANTIC BLVD 0 13 ARMED SUSPICIOUS PERSON
202100129830 3-3 10:56 4700 SAN JOSE MANOR DR W 1066 CANCEL
202100129867 3-3 10:55 SOUTHSIDE BLVD / CARGAL ST 4 AUTO CRASH
202100129864 3-3 10:55 7100 NOTTINGHAMSHIRE DR 60 SUICIDE OR ATTEMPT
202100129865 3-3 10:55 14600 DUVAL RD 63 DISPUTE
202100129863 3-3 10:53 STOCKTON ST / BEAVER ST W 16 ROAD OBSTRUCTION
202192103249 3-3 10:53 1500 HUBBARD ST 88 ASSAULT
202100129828 3-3 10:52 10600 LEM TURNER RD 63 DISPUTE
202100129860 3-3 10:51 6400 ARGYLE FOREST BLVD 76 ASSIST OTHER AGENCY
202100129594 3-3 10:49 4800 CAMPENELLA DR 21CT BURGLARY CONVEYANCE TELESERVE
202100129858 3-3 10:49 10000 GATE PKWY N 68 CON GAME/FLIM FLAM
202100129758 3-3 10:49 10200 ATLANTIC BLVD 9J THEFT JUST OCCURRED
202100129740 3-3 10:48 BAHIA DR / ST JOHNS BLUFF RD S 91 TRAFFIC LIGHT/RR CROSSING MALFUNCTION
202100129843 3-3 10:47 TOUCHTON RD / BELFORT RD 13 SUSPICIOUS PERSON
202192103247 3-3 10:47 7000 MELVIN RD 88 ASSAULT
202100129851 3-3 10:47 5TH ST W / PRIOLEOU ST 1050 TRAFFIC STOP
202100129847 3-3 10:47 7200 HOGAN RD 4 AUTO CRASH
202100129848 3-3 10:46 BEAVER ST W / STOCKTON ST 1050 TRAFFIC STOP
202100129834 3-3 10:44 10300 BEACH BLVD 9T THEFT (TELESERVE)
202100129837 3-3 10:43 5900 PIPER GLEN BLVD 1066 CANCEL
202100129836 3-3 10:42 SOUTHSIDE BLVD / JTB E OFF RAMP 38 TRAFFIC ASSIGNMENT
202100129827 3-3 10:42 11000 CREEKVIEW DR 63 DISPUTE
202100129762 3-3 10:41 4200 DALRY DR 22 DOMESTIC
202100129832 3-3 10:40 CASTLEBERRY RD / GOSSETT ST 1050 TRAFFIC STOP
202100129825 3-3 10:39 I95 ON RAMP / ADAMS ST W 4 AUTO CRASH
202100129829 3-3 10:39 4300 BRYSON DR 54 ILLEGALLY PARKED CAR
202100129826 3-3 10:38 ROOSEVELT BLVD / BLANEXIT RSVLT RP 4 AUTO CRASH
202100129793 3-3 10:36 MERRILL RD / HARTSFIELD RD 27 MENTALLY ILL PERSON
202100129761 3-3 10:36 2600 MAIN ST N 9J THEFT JUST OCCURRED
202100129742 3-3 10:35 1100 GRANT ST 22 DOMESTIC
202100129818 3-3 10:34 INTERNATIONAL AIRPORT BLVD / PECAN PARK RD 1050 TRAFFIC STOP
202100129815 3-3 10:34 3900 TOLEDO RD 63 DISPUTE
202100129593 3-3 10:32 I295 N OFF RAMP / NEW KINGS RD 96 ASSIST MOTORIST
202100129663 3-3 10:32 I10 W OFF RAMP / CECIL COMMERCE CENTER PKWY 16 ROAD OBSTRUCTION
202100129810 3-3 10:31 12000 SEA GROVE PL 13 SUSPICIOUS PERSON
202100129775 3-3 10:31 SOUTHSIDE BLVD / JTB E OFF RAMP 16 ROAD OBSTRUCTION
202100129809 3-3 10:30 UNIVERSITY BLVD N / EDENFIELD RD 1050 TRAFFIC STOP
202100129781 3-3 10:29 1200 KENNARD ST 63 DISPUTE
202100129801 3-3 10:29 9500 103RD ST 64 NOISE COMPLAINT
202100129784 3-3 10:28 1500 34TH ST W 63 DISPUTE
202100129802 3-3 10:27 1800 W BEAVER 1050 TRAFFIC STOP
202100129800 3-3 10:27 10000 GATE PKWY N 1066 CANCEL
202192103245 3-3 10:26 7300 PARKER SCHOOL RD 27 MENTALLY ILL PERSON
202100129798 3-3 10:26 6000 MERRILL RD 12 RECKLESS DRIVER
202100129797 3-3 10:25 7700 WESTSIDE INDUSTRIAL DR 1050 TRAFFIC STOP
202100129796 3-3 10:25 NORWOOD AVE / CRESTWOOD ST 1050 TRAFFIC STOP
202100129745 3-3 10:25 6400 ARGYLE FOREST BLVD 2288 DOMESTIC DISPUTE WITH/ASSAULT
202100129672 3-3 10:23 3900 CARMICHAEL AVE 95 FRAUD/FORGED (CHECK, ID, RX)
202100129794 3-3 10:23 APR BLVD AND ASHLEY ST 11 ABANDONED VEHICLE
202100129436 3-3 10:22 4700 HODGES BLVD 3 HIT AND RUN CRASH
202100129432 3-3 10:22 I95 S OFF RAMP / EMERSON ST 4 AUTO CRASH
202100129787 3-3 10:20 ROOSEVELT BLVD / ST JOHNS AVE 1050 TRAFFIC STOP
202100129783 3-3 10:20 UNIVERSITY BLVD N / PLAYA WAY 1050 TRAFFIC STOP
202100129780 3-3 10:18 PHILIPS HWY / HUDNALL RD 1050 TRAFFIC STOP
202182004009 3-3 10:18 2000 GEORGE ST 19 ANIMAL INVESTIGATION
202100129779 3-3 10:18 5200 NORWOOD 76 ASSIST OTHER AGENCY
202100129773 3-3 10:18 1900 HARDEE ST 21R BURGLARY RESIDENCE
202100129777 3-3 10:17 JTB 38 TRAFFIC ASSIGNMENT
202100129725 3-3 10:16 1300 ARDSLEY RD 95 FRAUD/FORGED (CHECK, ID, RX)
202100129768 3-3 10:16 9900 OLD BAYMEADOWS RD 2 IMPAIRED/INTOXICATED
202100129770 3-3 10:15 100 LAVILLA CENTER 63 DISPUTE
202100129679 3-3 10:15 8600 JESSE B SMITH CT 95ID IDENTITY THEFT
202100129765 3-3 10:14 PHILIPS HWY / BAYMEADOWS RD 4 AUTO CRASH
202100129759 3-3 10:14 GRUNTHAL ST / STATE ST W 64 NOISE COMPLAINT
202100129685 3-3 10:13 700 CENTERHILL DR W 22 DOMESTIC
202100129760 3-3 10:12 10300 TRIPLE CROWN AVE 21C BURGLARY CONVEYANCE
202100129755 3-3 10:11 15900 LEM TURNER RD 19 ANIMAL INVESTIGATION
202100129743 3-3 10:07 3100 ST JOHNS BLUFF RD S 63 DISPUTE
202100129735 3-3 10:07 2800 HIDDEN HAVEN RD 88J ASSAULT JUST OCCURRED
202100129744 3-3 10:06 6100 THISTLEWOOD RD 1050 TRAFFIC STOP
202100129734 3-3 10:04 11800 DUVAL RD 13 SUSPICIOUS PERSON
202100129736 3-3 10:03 4100 ROOSEVELT 1050 TRAFFIC STOP
202100129729 3-3 10:01 5500 WINDERMERE DR 28 DELIVER MESSAGE
202192103242 3-3 09:59 2700 JOHN PROM BLVD 36 MEET AN OFFICER
202100129727 3-3 09:58 EDISON AVE / SUNSHINE ST 1050 TRAFFIC STOP
202100129716 3-3 09:56 4600 DELTA AVE 76 ASSIST OTHER AGENCY
202100129724 3-3 09:56 7000 BLANDING BLVD 1050 TRAFFIC STOP
202100129723 3-3 09:56 EDISON AVE / LELAND ST 1050 TRAFFIC STOP
202100129719 3-3 09:54 PHILIPS HWY / UNIVERSITY BLVD W 13 SUSPICIOUS PERSON
202100129708 3-3 09:54 5200 NORWOOD AVE 4 AUTO CRASH
202100129713 3-3 09:53 A PHILIP RANDOLPH BLVD / PIPPIN ST 76 ASSIST OTHER AGENCY
202100129718 3-3 09:53 BROWARD RD / PINEHURST DR 1050 TRAFFIC STOP
202100129717 3-3 09:53 5200 JAMMES RD 52 ILLEGAL DUMPING
202100129709 3-3 09:51 3600 UNIVERSITY BLVD S 6388 DISPUTE WITH ASSAULT
202100129701 3-3 09:50 5900 CEDAR HILLS BLVD 22 DOMESTIC
202100129705 3-3 09:49 5800 BEACH BLVD 60 SUICIDE OR ATTEMPT
202100129695 3-3 09:48 5800 WINDERMERE DR 64 NOISE COMPLAINT
202100129700 3-3 09:48 7400 BEAVER ST W 38 TRAFFIC ASSIGNMENT
202100129654 3-3 09:46 600 11TH ST E 49 REPORT TO HOSPITAL
202100129693 3-3 09:46 3700 UNIVERSITY CLUB 1050 TRAFFIC STOP
202100129658 3-3 09:44 500 ACME ST 63 DISPUTE
202100129690 3-3 09:43 100 LAVILLA CENTER 17 PERSON DOWN OR SICK
202100129687 3-3 09:43 EDISON AVE / CHEROKEE ST 1050 TRAFFIC STOP
202100129686 3-3 09:42 LAURA ST N / 2ND ST W 17 PERSON DOWN OR SICK
202100129682 3-3 09:41 800 PRUDENTIAL DR 27 MENTALLY ILL PERSON
202100129681 3-3 09:41 6600 FIRESTONE RD 38 TRAFFIC ASSIGNMENT
202100129588 3-3 09:40 5100 COLLINS RD 10 VEHICLE THEFT
202100129676 3-3 09:39 3500 AYRSHIRE ST 11 ABANDONED VEHICLE
202100129675 3-3 09:39 200 1ST ST E 10 VEHICLE THEFT
202100129668 3-3 09:38 4400 SOUTHSIDE BLVD 63 DISPUTE
202100129642 3-3 09:38 13800 EGRETS NEST DR 63 DISPUTE
202100129674 3-3 09:37 100 BAISDEN RD 9 THEFT
202182004008 3-3 09:36 100 JACKSON RD 2288 DOMESTIC DISPUTE WITH/ASSAULT
202100129666 3-3 09:35 4000 PHILIPS HWY 1050 TRAFFIC STOP
202100129660 3-3 09:33 3700 BLANDING BLVD 50 FOUND/ABANDONED PROPERTY
202100129661 3-3 09:33 MLK 38 TRAFFIC ASSIGNMENT
202100129659 3-3 09:33 DRURY LN / GILLESPIE AVE 1050 TRAFFIC STOP
202100129651 3-3 09:32 6000 BENNETT RD 6388 DISPUTE WITH ASSAULT
202100129655 3-3 09:30 6600 ARGYLE FOREST BLVD 38 TRAFFIC ASSIGNMENT
202100129564 3-3 09:28 13000 CITY SQUARE DR 9 THEFT
202100129647 3-3 09:28 1900 BEAVER ST W 76 ASSIST OTHER AGENCY
202100129635 3-3 09:27 3100 EMERSON ST 63 DISPUTE
202100129645 3-3 09:27 ATLANTIC BLVD / LAMSON ST 1050 TRAFFIC STOP
202100129643 3-3 09:26 1300 ST JOHNS BLUFF RD 96 ASSIST MOTORIST
202100129639 3-3 09:25 10900 BISCAYNE BLVD 38 TRAFFIC ASSIGNMENT
202100129638 3-3 09:24 6000 MERRILL RD 12 RECKLESS DRIVER
202100129451 3-3 09:24 6400 TROUT RIVER BLVD 21C BURGLARY CONVEYANCE
202100129611 3-3 09:22 3700 UNIVERSITY CLUB BLVD 76 ASSIST OTHER AGENCY
202100129634 3-3 09:22 1100 CESERY BLVD 38 TRAFFIC ASSIGNMENT
202100129351 3-3 09:22 SAN PABLO RD S / JTB E OFF RAMP 4 AUTO CRASH
202100129632 3-3 09:21 I95 EXPY N / JTB E OFF RAMP 1050 TRAFFIC STOP
202100129620 3-3 09:20 800 AMERICAS CUP CIR W 22 DOMESTIC
202100129630 3-3 09:20 APPROX LOC: 4550 FIRESTONE RD 12 RECKLESS DRIVER
202100129626 3-3 09:20 RAMPART RD / PARK CITY DR 76 ASSIST OTHER AGENCY
202100129622 3-3 09:19 100 STATE ST W 62 PERSON CUT
202100129623 3-3 09:18 FAYE RD / NEW BERLIN RD 1050 TRAFFIC STOP
202100129616 3-3 09:16 500 BAY ST E 87 DAMAGED PROPERTY
202100129615 3-3 09:16 3700 BLANDING BLVD 50 FOUND/ABANDONED PROPERTY
202100129610 3-3 09:14 3500 PHILLIPS HWY 38 TRAFFIC ASSIGNMENT
202100129599 3-3 09:13 BEACH BLVD / SAN PABLO RD S 4 AUTO CRASH
202100129607 3-3 09:11 4400 GEORGETOWN DR 12 RECKLESS DRIVER
202100129604 3-3 09:09 ACOSTA BRIDGE EXIT HENDRICKS AVE RP / HENDRICKS AVE 16 ROAD OBSTRUCTION
202100129595 3-3 09:07 3400 LAWN TENNIS DR 22 DOMESTIC
202100129536 3-3 09:06 3000 PESCARA DR 3 HIT AND RUN CRASH
202100129575 3-3 09:06 500 BAY ST E 95IDT IDENTITY THEFT TELESERVE
202100129597 3-3 09:05 JTB 38 TRAFFIC ASSIGNMENT
202100129530 3-3 09:03 8000 GATE PKWY W 22 DOMESTIC
202100129592 3-3 09:01 1300 ROGERO RD 12 RECKLESS DRIVER
202100129569 3-3 09:01 900 DUNN AVE 4 AUTO CRASH